Tracking 19242 objects as of 15-Aug-2018
HD Live streaming from Space Station
objects crossing your sky now

CZ-3B DEB

Track CZ-3B DEB now!


NORAD ID: 38748
Int'l Code: 2010-042C
Perigee: 400.3 km
Apogee: 38,266.2 km
Inclination: 24.2 °
Period: 683.5 minutes
Semi major axis: 25704 km
RCS: 0.003 m2 (small)
Launch date: September 4, 2010
Source: People's Republic of China (PRC)
Launch site: Xichang Space Center, China (XSC)

Note: This is SATELLITE DEBRIS
aabbcc
Your satellite tracking list
Your tracking list is empty




NASA's NSSDC Master Catalog

Two Line Element Set (TLE):
1 38748U 10042C   18224.87905312 -.00000242 +00000-0 -22445-3 0  9999
2 38748 024.1766 352.2529 7365673 023.7807 357.2829 02.10666082051632
Source of the keplerian elements: AFSPC